Flag for Canada Weather past 2 weeks in Red Deer, Alberta, Canada

Now
45 °F

Partly cloudy.


Feels Like: 40 °F
Forecast: 48 / 67 °F
Wind: 8 mph from South

Location: Red Deer

Current Time: Sep 1, 2015 at 2:33:39 AM

Latest Report: Sep 1, 2015 at 2:00 AM


Visibility: 15 mi

Pressure: 29.58 "Hg (26.65 "Hg at 857m altitude)

Humidity: 87%

Dew point: 41 °F

Location of Red DeerLocation

Historic Weather in Red Deer — Graph

°F

Red Deer temperature yesterday

Maximum temperature yesterday: 72 °F (at 4:00 PM)
Minimum temperature yesterday: 39 °F (at 5:00 AM)
Average temperature yesterday: 55 °F

Past Weeks' High & Low Weather Summary

 TemperatureHumidityPressure
High79 °F (Aug 19, 3:00 PM)100% (Aug 17, 2:00 AM)30.26 "Hg (Aug 17, 2:00 AM)
Low36 °F (Aug 23, 6:00 AM)30% (Aug 19, 3:00 PM)29.47 "Hg (Aug 29, 6:00 PM)
Average57 °F74%29.92 "Hg
* Reported Aug 17 1:00 AM — Sep 1 1:00 AM, Red Deer, Weather by CustomWeather, © 2015

Note: Actual official high and low records may vary slightly from our data, if they occured in-between our weather recording intervals... More about our weather records

Advertising

Red Deer weather history for previous 24 hours

 ConditionsComfort  
Time TempWeatherWind HumidityBarometerVisibility
1:00 AM
Tue, Sep 1
46 °FPartly cloudy.6 mph82%29.59 "Hg15 mi
12:00 AM48 °FPassing clouds.2 mph82%29.62 "Hg15 mi
11:00 PM
Mon, Aug 31
50 °FPassing clouds.3 mph76%29.64 "Hg15 mi
10:00 PM50 °FPassing clouds.7 mph76%29.64 "Hg15 mi
9:00 PM55 °FScattered clouds.10 mph67%29.65 "Hg15 mi
8:00 PM57 °FPartly sunny.8 mph63%29.64 "Hg15 mi
7:00 PM68 °FPartly sunny.5 mph46%29.64 "Hg15 mi
6:00 PM70 °FPartly sunny.5 mph40%29.64 "Hg15 mi
5:00 PM70 °FBroken clouds.2 mph40%29.64 "Hg15 mi
4:00 PM72 °FBroken clouds.9 mph31%29.65 "Hg15 mi
3:00 PM70 °FPartly sunny.6 mph31%29.67 "Hg15 mi
2:00 PM68 °FPartly sunny.7 mph33%29.67 "Hg15 mi
1:00 PM70 °FPartly sunny.9 mph38%29.66 "Hg15 mi
12:00 PM66 °FPartly sunny.7 mph43%29.67 "Hg15 mi
11:00 AM64 °FPartly sunny.5 mph49%29.66 "Hg15 mi
10:00 AM61 °FPartly sunny.6 mph55%29.67 "Hg15 mi
9:00 AM54 °FPartly sunny.12 mph63%29.65 "Hg15 mi
8:00 AM46 °FPassing clouds.7 mph76%29.65 "Hg15 mi
7:00 AM41 °FPassing clouds.5 mph81%29.64 "Hg15 mi
6:00 AM41 °FPassing clouds.5 mph81%29.62 "Hg15 mi
5:00 AM39 °FPassing clouds.7 mph87%29.62 "Hg15 mi
4:00 AM41 °FPassing clouds.6 mph81%29.61 "Hg15 mi
3:00 AM41 °FPassing clouds.7 mph81%29.61 "Hg15 mi
2:00 AM43 °FPassing clouds.6 mph81%29.60 "Hg15 mi
Weather by CustomWeather, © 2015

See weather overviewHow to use our weather pages